Vorticity
nan nan nan nan nan nan nan nan nan nan nan nan nan nan nan nan nan nan nan nan nan nan nan nan nan nan nan nan nan nan nan nan
nan 13 11 14 13 11 12 13 10 10 9 7 7 8 7 9 10 10 6 6 8 5 7 9 8 7 8 7 8 10 7 nan
nan 20 12 11 14 16 17 17 13 7 6 8 8 10 8 8 10 10 8 7 7 6 7 8 7 8 10 8 6 8 9 nan
nan 17 19 12 12 13 15 23 19 12 7 6 9 8 9 9 9 9 13 7 6 7 6 7 7 7 9 9 8 6 5 nan
nan 11 11 12 13 13 16 18 25 22 14 10 9 5 6 7 9 9 10 11 7 7 6 6 5 7 8 7 8 7 7 nan
nan 11 11 10 12 13 16 14 16 26 26 11 8 5 7 9 11 12 9 11 11 10 7 6 5 7 9 8 8 6 6 nan
nan 11 11 10 11 12 15 14 11 12 16 27 22 14 6 7 8 7 9 10 13 13 9 7 8 8 8 8 9 7 5 nan
nan 9 11 10 10 12 13 12 11 13 13 13 16 15 16 17 11 9 7 7 10 12 10 8 8 10 9 7 9 10 7 nan
nan 11 10 9 10 12 12 9 10 12 13 12 10 7 14 11 9 17 16 7 9 11 12 10 10 8 10 7 7 10 10 nan
nan 12 10 11 9 9 10 9 11 9 13 10 9 10 11 11 11 12 13 15 13 11 12 11 9 9 8 8 8 9 10 nan
nan 12 10 12 11 9 8 11 10 10 12 12 9 8 10 12 12 13 11 11 16 17 9 11 10 9 10 10 9 9 8 nan
nan 11 11 11 10 11 8 8 9 9 9 12 12 10 10 11 10 11 12 10 19 18 11 10 10 10 11 11 11 11 8 nan
nan 10 10 10 10 9 11 12 9 9 10 10 9 9 10 10 10 10 13 14 13 22 23 13 11 10 9 10 9 7 10 nan
nan 11 10 10 9 10 9 11 9 11 11 11 11 10 9 10 10 12 12 13 13 14 15 19 22 19 16 13 11 9 10 nan
nan 11 9 10 11 10 9 10 11 10 10 10 9 10 11 11 10 10 11 11 12 12 12 12 15 14 13 13 18 19 13 nan
nan 10 11 9 11 11 10 9 11 9 8 10 11 10 10 11 11 11 11 11 11 10 11 10 10 10 7 10 14 17 20 nan
nan 8 11 10 10 11 10 9 10 10 10 9 9 9 11 9 9 11 11 11 10 10 10 10 12 4 5 18 22 19 15 nan
nan 9 9 9 8 9 12 12 11 10 9 9 9 9 10 11 10 9 8 8 10 9 9 10 9 5 9 17 24 21 12 nan
nan nan nan nan nan nan nan nan nan nan nan nan nan nan nan nan nan nan nan nan nan nan nan nan nan nan nan nan nan nan nan nan
CAPE
0 0 0 0 0 0 0 0 1975 1873 2009 1706 1458 1472 1421 1468 1705 1796 1313 1570 1461 1485 1360 1374 1258 1258 864 774 669 1080 952 907
0 0 0 0 0 0 0 0 1046 2264 1792 1524 1403 1505 1408 1428 1546 1618 1738 1376 1499 1603 1305 1188 1075 955 692 599 755 801 967 919
0 0 0 7 0 0 0 0 127 2119 2095 1777 1435 1544 1294 1253 1356 1564 1777 1327 1471 1421 1342 1166 857 915 778 678 424 614 776 777
7 37 28 16 0 0 0 181 304 1862 1964 2149 1698 1602 1425 1290 1366 1580 1821 1668 1264 1373 1435 1012 834 776 823 606 423 571 556 422
5 10 10 10 7 5 4 15 791 2055 1972 2078 1666 1857 1694 1825 1622 1456 1363 1468 1634 1154 1222 1143 942 717 749 686 529 475 719 214
17 10 9 8 3 1 2 2 0 0 1989 2032 1673 2142 2156 2221 2050 1753 1483 1414 1747 1544 1391 1043 937 1045 946 903 446 468 580 682
19 18 13 9 7 1 0 2 0 1 2 445 1745 1416 2230 2491 2092 2138 1675 1518 1315 1335 1768 1452 1264 984 841 916 610 597 597 656
18 17 21 29 23 7 1 1 1 3 10 3 2 1 499 2511 2298 2185 1692 1566 1138 1163 1507 1499 1334 1234 958 946 772 810 994 1056
13 2 20 17 28 10 5 2 1 1 6 4 4 4 1 1 7 373 2057 1676 1511 1430 1330 1386 1299 1187 1162 1620 1477 1429 1337 1464
11 11 23 31 44 11 9 8 4 2 3 2 1 3 2 3 2 1 0 1689 1475 1454 1086 901 855 959 889 1167 1477 920 1090 1208
10 15 17 26 31 12 6 5 9 5 3 4 4 3 3 3 3 4 2 2 556 1104 878 768 864 696 557 487 614 544 385 536
11 10 19 9 11 19 5 6 5 7 6 7 4 4 3 3 3 3 4 2 3 627 773 721 665 548 183 130 172 266 283 295
8 10 10 7 7 6 7 9 7 6 8 7 8 7 5 4 5 4 3 3 1 3 350 661 601 405 222 88 105 112 171 165
11 10 7 6 7 9 11 11 18 13 6 6 7 7 6 6 5 5 3 2 1 2 0 2 103 183 209 140 49 60 69 110
20 19 15 10 8 10 10 9 8 10 7 8 9 9 11 8 7 6 8 6 3 2 1 1 0 0 0 0 0 11 25 18
8 16 17 20 10 7 8 10 5 9 7 8 14 9 7 6 8 7 7 7 6 3 2 1 3 1 3 2 0 0 4 1
6 6 7 12 11 8 5 7 10 6 6 7 5 7 3 6 7 7 6 7 7 7 4 3 4 4 2 2 2 3 1 2
12 14 13 12 18 14 12 11 9 9 8 6 4 4 5 7 5 6 5 7 6 9 8 8 6 4 3 2 0 2 2 2
10 13 13 12 15 12 10 7 7 12 12 10 9 5 5 5 7 11 11 8 8 6 7 9 8 7 4 1 0 6 3 1